Location: Ferintosh
(52.7647°N, 112.9692°W)
Time: 14:48:33
(UTC+00:00)

Transit 2A - Pass Details

Date: 24 May 2024
Orbit: 593 x 959 km, 66.7° (Epoch: 14 June)

Event Time Altitude Azimuth Distance (km) Brightness Sun altitude
Rises 10:29:26 0° 304° (NW) 3,199 9.1 -6.6°
Reaches altitude 10° 10:32:24 10° 322° (NW) 2,345 8.7 -6.3°
Maximum altitude 10:36:20 20° 9° (N) 1,837 8.8 -5.9°
Drops below altitude 10° 10:40:31 10° 55° (NE) 2,523 10.4 -5.4°
Sets 10:43:50 0° 72° (ENE) 3,523 10.7 -5.1°
